Location: Buxton
(40.9167°S, 176.0333°E)
Time: 21:33:30
(UTC+00:00)

Daily predictions for brighter satellites

Satellite Brightness Start Highest point End
(mag) Time Altitude Azimuth Time Altitude Azimuth Time Altitude Azimuth
SJ 16-02 3.9 12:21:41 10° SSW 12:22:56 19° SSW 12:22:56 19° SSW
Cosmos 2369 Rocket 3.6 12:24:20 10° SSW 12:27:26 32° SW 12:27:26 32° SW
USA 281 4.3 12:23:55 10° SE 12:28:18 33° ESE 12:28:18 33° ESE
Cosmos 1943 4.3 12:37:53 42° S 12:37:53 42° S 12:41:45 10° SSE
ACS3 Solar Sail 3.1 12:42:16 29° ESE 12:42:16 29° ESE 12:47:15 10° S
USA 238 DEB 4.3 12:41:01 10° SW 12:45:28 44° SW 12:45:28 44° SW
USA 238 4.3 12:41:09 10° SW 12:45:36 45° SW 12:45:36 45° SW
ADEOS II 4.1 13:04:58 19° ESE 13:05:45 20° ESE 13:09:27 10° SSE
IDEFIX/ARIANE 42P 3.9 13:13:32 35° SSW 13:13:32 35° SSW 13:16:32 10° SSW
Resurs 1-4 Rocket 3.4 13:14:58 34° ESE 13:14:58 34° ESE 13:19:22 10° S
Cosmos 1833 Rocket 4.1 13:28:25 31° ESE 13:28:25 31° ESE 13:32:08 10° SE
USA 59 Rocket 1.6 13:40:40 10° SW 13:50:34 89° ESE 13:52:11 63° NE
Cosmos 1452 Rocket 4.3 13:54:35 47° S 13:54:35 47° S 13:58:29 10° SSE
ADEOS Rocket 3.1 13:53:52 77° ESE 13:53:52 77° ESE 14:00:37 10° S
CZ-3 Stage 3 4.2 14:01:34 29° NE 14:01:34 29° NE 14:12:50 10° E
ALOS 3.4 14:04:38 41° S 14:04:38 41° S 14:07:46 10° S
Cosmos 2154 Rocket 3.9 14:00:51 10° S 14:07:15 86° ESE 14:07:15 86° ESE
CZ-2D R/B 2.6 14:11:46 54° SSW 14:11:46 54° SSW 14:15:50 10° SSW
H-2A R/B 2.6 14:11:45 52° ESE 14:11:45 52° ESE 14:16:21 10° S
USA 281 3.8 14:08:21 10° S 14:14:30 42° WSW 14:15:10 41° WSW
CZ-2C R/B 3.3 14:10:30 10° S 14:14:46 45° SW 14:14:46 45° SW
Cosmos 2082 Rocket 4.2 14:14:45 16° ENE 14:16:15 18° E 14:19:55 10° ESE
Envisat 3.7 14:18:23 47° SSW 14:18:23 47° SSW 14:22:07 10° SSW
H-2A R/B 3.2 14:20:08 41° ESE 14:20:08 41° ESE 14:23:55 10° S
ACS3 Solar Sail 2.6 14:26:02 35° WSW 14:26:02 35° WSW 14:30:12 10° SSW
Meteor 1-13 Rocket 4.1 14:26:52 82° SSE 14:26:52 82° SSE 14:32:14 10° S
Cosmos 1633 Rocket 3.9 14:28:07 10° S 14:31:17 46° S 14:31:17 46° S
Cosmos 1992 Rocket 4.0 14:33:59 79° SSE 14:33:59 79° SSE 14:38:55 10° SSE
Meteor 1-15 Rocket 4.3 14:30:51 10° S 14:36:42 78° E 14:37:36 64° NE
Cosmos 2074 Rocket 4.4 14:31:26 10° SSW 14:37:03 47° WSW 14:37:03 47° WSW
AQUA 4.1 14:40:42 59° E 14:41:04 61° ESE 14:45:47 10° S
USA 32 4.5 14:36:25 10° S 14:41:41 58° E 14:42:47 48° NE
Cosmos 2184 Rocket 4.5 14:36:18 10° SSW 14:41:47 44° WSW 14:41:47 44° WSW
ADEOS II 2.5 14:45:48 48° WSW 14:45:48 48° WSW 14:50:02 10° SSW
Cosmos 1340 Rocket 3.8 14:46:18 10° S 14:49:26 42° SE 14:49:26 42° SE
Cosmos 1610 Rocket 4.4 14:44:24 10° SSW 14:50:32 63° W 14:50:56 61° WNW
ARGOS 3.7 14:48:04 28° NE 14:50:48 57° ESE 14:56:12 10° S
Okean 2 4.1 14:53:30 48° ESE 14:53:30 48° ESE 14:57:02 10° SSE
Resurs 1-4 Rocket 3.5 14:56:00 25° WSW 14:56:00 25° WSW 14:58:58 10° SW
Meteor 1-21 4.2 15:00:34 61° NNW 15:01:38 82° W 15:07:29 10° S
Cosmos 2341 Rocket 4.1 14:57:42 10° S 15:04:13 82° E 15:07:37 30° NNE
ATLAS CENTAUR R/B 3.5 15:09:25 11° SSW 15:09:25 11° SSW 15:09:34 10° S
Cosmos 1980 Rocket 2.9 15:02:43 10° SSW 15:08:20 53° ESE 15:13:50 10° NE
Cosmos 1833 Rocket 3.6 15:10:05 32° WSW 15:10:55 34° WSW 15:16:04 10° S
Cosmos 2366 rocket 3.9 15:05:27 10° S 15:11:44 86° E 15:15:13 28° N
Meteor 1-12 Rocket 4.4 15:05:51 10° S 15:11:53 78° E 15:15:28 25° NNE
COSMOS 2455 2.8 15:10:01 10° SW 15:15:58 59° WNW 15:17:50 41° N
METEOR-M 4.4 15:16:30 45° W 15:16:30 45° W 15:21:36 10° SSW
NOSS 3-1 (C) 3.5 15:11:41 10° SW 15:16:53 43° W 15:16:53 43° W
Cosmos 1697 Rocket 2.7 15:15:00 10° SSW 15:20:31 55° WNW 15:21:29 48° NW
NOSS 3-1 (A) 3.2 15:15:43 10° SSW 15:22:10 78° SE 15:27:11 10° NE
Cosmos 1953 4.1 15:21:02 10° SSW 15:22:25 19° SW 15:22:25 19° SW
COSMOS 2406 4.4 15:26:25 16° NNE 15:30:27 37° ENE 15:35:41 10° SE
ATLAS 2AS CENTAUR R/B 3.3 15:29:53 23° N 15:34:12 54° ENE 15:41:15 10° SE
Cosmos 1515 Rocket 4.3 15:35:22 35° WSW 15:35:23 35° WSW 15:39:28 10° S
USA 59 Rocket 2.8 15:32:00 10° WSW 15:37:40 21° W 15:37:40 21° W
Okean 3 3.3 15:41:07 50° NW 15:42:02 67° W 15:46:12 10° S
Cosmos 1763 Rocket 3.9 15:39:02 23° N 15:42:15 62° ENE 15:47:32 10° SSE
SL-8 Rocket 4.3 15:37:58 10° SSW 15:44:04 48° W 15:47:03 28° NNW
Cosmos 1486 Rocket 4.0 15:40:34 10° SSW 15:45:54 88° WNW 15:51:13 10° NNE
Cosmos 1777 Rocket 4.1 15:42:04 10° SSW 15:47:23 78° ESE 15:52:37 10° NNE
Cosmos 1733 Rocket 4.5 15:43:34 10° S 15:47:48 39° ESE 15:51:57 10° NNE
Meteor 2-15 4.4 15:42:58 10° SSW 15:49:10 74° W 15:55:11 11° N
Cosmos 2181 Rocket 4.1 15:46:02 28° NNW 15:49:20 61° W 15:55:31 10° S
CZ-2C R/B 2.4 15:46:18 17° N 15:50:18 69° WNW 15:55:30 10° SSW
H-2A R/B 3.7 15:52:15 16° WSW 15:52:15 16° WSW 15:54:21 10° SW
Nadezhda 3 Rocket 4.2 15:46:10 12° N 15:52:01 76° E 15:58:20 10° S
Cosmos 2218 Rocket 4.3 15:48:03 10° SSW 15:54:04 48° W 15:58:01 21° NNW
H-2A R/B 3.9 15:56:31 16° WSW 15:56:31 16° WSW 15:58:09 10° SW
Lacrosse 5 rocket 3.6 15:57:30 10° NNE 15:59:13 13° ENE 16:00:56 10° E
Cosmos 2082 Rocket 2.3 15:56:36 27° NW 15:59:42 64° WSW 16:05:25 10° SSE
Cosmos 44 4.3 15:58:47 23° W 16:00:39 31° SW 16:04:45 10° SSE
Cosmos 2369 3.9 15:55:30 10° SSW 16:01:19 77° ESE 16:07:03 10° NNE
H-2A R/B 2.6 16:06:53 10° S 16:10:23 43° WSW 16:11:47 29° NW
Cosmos 1354 Rocket 4.3 16:06:16 10° SSW 16:11:35 71° ESE 16:16:48 10° NNE
SL-08 RB Rocket 4.2 16:09:37 22° NNW 16:12:00 38° W 16:16:15 10° SSW
H-2A R/B 3.4 16:08:13 10° NNE 16:12:02 77° ESE 16:15:55 10° S
SL-16 R/B 3.7 16:08:11 10° S 16:13:33 39° ESE 16:18:51 10° NE
USA 267 3.5 16:08:09 10° SE 16:14:44 65° NE 16:20:23 14° NNW
Cosmos 2333 Rocket 4.1 16:10:33 10° S 16:15:49 34° ESE 16:21:02 10° ENE
Cosmos 1821 Rocket 4.4 16:10:05 10° SSW 16:16:13 47° W 16:22:16 10° NNW
Cosmos 2084 Rocket 4.1 16:14:52 23° WNW 16:17:02 41° SW 16:21:04 10° SSE
Spot 2 4.5 16:12:35 10° S 16:17:35 63° WSW 16:21:37 15° NNW
SJ-11-01 4.2 16:13:59 10° N 16:18:42 75° WNW 16:23:29 10° SSW
Cosmos 540 Rocket 3.5 16:18:24 17° NNW 16:22:24 67° WSW 16:27:36 10° SSE
Okean 1-7 3.0 16:29:14 10° NNW 16:33:28 66° W 16:37:44 10° S
JB-3 4.1 16:34:14 10° SSE 16:37:56 89° E 16:41:36 10° NNW
Cosmos 2228 Rocket 3.1 16:35:07 10° NNW 16:39:40 73° W 16:44:19 10° S
Cosmos 990 Rocket 4.0 16:38:18 10° SSW 16:43:28 65° WNW 16:48:36 10° N
Cosmos 2322 Rocket 3.8 16:41:12 10° S 16:46:38 41° ESE 16:52:00 10° NE
Cosmos 1980 Rocket 3.4 16:47:39 10° SW 16:51:50 21° W 16:55:59 10° NNW
Cosmos 1328 4.0 16:51:51 10° NNW 16:55:14 40° WSW 16:58:39 10° S
Cosmos 2237 4.5 16:52:22 10° SW 16:57:56 49° WNW 17:03:24 10° N
Cosmos 1939 Rocket 4.3 17:01:34 10° NW 17:04:11 17° W 17:06:47 10° SW
Aureole 1 Rocket 4.0 17:01:39 10° SSW 17:07:22 79° WNW 17:14:13 10° NNE
Cosmos 2278 3.8 17:02:19 10° SSW 17:08:06 87° ESE 17:13:48 10° NNE
CZ-3 R/B 3.5 17:12:18 10° W 17:30:37 36° NNW 17:37:14 10° NE
